TimeCDT,TemperatureF,Dew PointF,Humidity,Sea Level PressureIn,VisibilityMPH,Wind Direction,Wind SpeedMPH,Gust SpeedMPH,PrecipitationIn,Events,Conditions,WindDirDegrees,DateUTC
12:53 AM,57.0,57.0,100,30.11,7.0,Calm,Calm,-,0.01,,Clear,0,2012-10-04 05:53:00
1:53 AM,55.9,55.0,97,30.11,6.0,Calm,Calm,-,N/A,,Clear,0,2012-10-04 06:53:00
2:53 AM,55.9,55.0,97,30.12,7.0,Calm,Calm,-,N/A,,Clear,0,2012-10-04 07:53:00
3:53 AM,55.0,54.0,96,30.12,7.0,Calm,Calm,-,N/A,,Clear,0,2012-10-04 08:53:00
4:53 AM,55.0,53.1,93,30.14,9.0,Calm,Calm,-,N/A,,Clear,0,2012-10-04 09:53:00
5:53 AM,55.0,54.0,96,30.15,8.0,Calm,Calm,-,N/A,,Clear,0,2012-10-04 10:53:00
6:53 AM,54.0,53.1,97,30.17,8.0,Calm,Calm,-,N/A,,Clear,0,2012-10-04 11:53:00
7:53 AM,55.0,55.0,100,30.18,6.0,Calm,Calm,-,N/A,,Clear,0,2012-10-04 12:53:00
8:53 AM,62.1,60.1,93,30.19,7.0,SSE,3.5,-,N/A,,Clear,160,2012-10-04 13:53:00
9:53 AM,69.1,62.1,78,30.21,10.0,Calm,Calm,-,N/A,,Clear,0,2012-10-04 14:53:00
10:53 AM,73.9,62.1,66,30.22,10.0,SSE,4.6,-,N/A,,Clear,160,2012-10-04 15:53:00
11:53 AM,78.1,61.0,56,30.22,10.0,SSE,5.8,-,N/A,,Clear,150,2012-10-04 16:53:00
12:53 PM,79.0,60.1,52,30.20,10.0,SE,4.6,-,N/A,,Clear,130,2012-10-04 17:53:00
1:53 PM,80.1,60.1,50,30.17,10.0,SSE,5.8,-,N/A,,Clear,150,2012-10-04 18:53:00
2:53 PM,81.0,57.9,45,30.16,10.0,SE,8.1,-,N/A,,Clear,140,2012-10-04 19:53:00
3:02 PM,80.6,57.2,45,30.16,10.0,South,6.9,-,N/A,,Partly Cloudy,170,2012-10-04 20:02:00
3:53 PM,81.0,57.9,45,30.14,10.0,SSE,9.2,-,N/A,,Clear,150,2012-10-04 20:53:00
4:53 PM,80.1,59.0,48,30.13,10.0,SSE,5.8,-,N/A,,Clear,160,2012-10-04 21:53:00
5:53 PM,79.0,60.1,52,30.12,10.0,SSE,5.8,-,N/A,,Clear,150,2012-10-04 22:53:00
6:53 PM,71.1,64.0,78,30.13,10.0,Calm,Calm,-,N/A,,Clear,0,2012-10-04 23:53:00
7:53 PM,66.0,63.0,90,30.13,10.0,Calm,Calm,-,N/A,,Clear,0,2012-10-05 00:53:00
8:53 PM,63.0,62.1,97,30.14,10.0,Calm,Calm,-,N/A,,Clear,0,2012-10-05 01:53:00
9:53 PM,64.0,62.1,93,30.15,9.0,Calm,Calm,-,N/A,,Clear,0,2012-10-05 02:53:00
10:53 PM,63.0,61.0,93,30.16,10.0,Calm,Calm,-,N/A,,Clear,0,2012-10-05 03:53:00
11:53 PM,62.1,61.0,96,30.14,9.0,Calm,Calm,-,N/A,,Clear,0,2012-10-05 04:53:00